Dubuque, IA

9:08 PM CST on November 16, 2019 (GMT -0600)
Dubuque Regional

Weather History for KDBQ - September, 2019

Change the Weather History Date:

Thursday, September 5, 2019

  Actual Average Record
Temperature  
Mean Temperature 60 °F 66 °F  
Max Temperature 73 °F 76 °F 96 °F (1899)
Min Temperature 47 °F 56 °F 44 °F (1962)
Degree Days  
Heating Degree Days 5 2  
Month to date heating degree days 11 10  
Since 1 July heating degree days 20 37  
Cooling Degree Days 0 3  
Month to date cooling degree days 14 18  
Year to date cooling degree days 587 594  
Growing Degree Days 10 (Base 50)    
Moisture  
Dew Point 56 °F    
Average Humidity 82    
Maximum Humidity 100    
Minimum Humidity 64    
Precipitation  
Precipitation 0.00 in 0.11 in 3.40 in (1876)
Month to date precipitation 0.35 0.60  
Year to date precipitation 31.48 26.58  
Snow  
Snow 0.00 in 0.00 in - ()
Month to date snowfall 0.0 0.0  
Since 1 July snowfall 0.0 0.0  
Since 1 September snowfall 0.0 0.0  
Snow Depth 0.00 in    
Sea Level Pressure  
Sea Level Pressure 30.10 in    
Wind  
Wind Speed 4 mph ()    
Max Wind Speed 17 mph    
Max Gust Speed 23 mph    
Visibility 10.0 miles    
Events      
T = Trace of Precipitation, MM = Missing Value Source: Averaged Metar Reports

Daily Weather History Graph

Daily Weather History Graph

Search for Another Location

Airport or City:

Astronomy

Sep. 05, 2019 Rise Set
Actual Time 6:31 AM CDT 7:30 PM CDT
Civil Twilight 6:03 AM CDT 7:58 PM CDT
Nautical Twilight 5:29 AM CDT 8:33 PM CDT
Astronomical Twilight 4:53 AM CDT 9:08 PM CDT
Moon 1:47 PM CDT (9/5) 11:37 PM CDT (9/5)
Length of Visible Light 13h 55m
Length of Day
12h 58m
Waxing Crescent, 45% of the Moon is Illuminated
Sep 5
Waxing Crescent
Sep 5
First Quarter
Sep 13
Full
Sep 21
Last Quarter
Sep 28
New

Hourly Weather History & Observations

Time (CDT) Temp. Dew Point Humidity Pressure Visibility Wind Dir Wind Speed Gust Speed Precip Events Conditions
12:53 AM 52.0 °F 50.0 °F 93% 30.17 in 10.0 mi Calm Calm - N/A   Clear
1:53 AM 50.0 °F 48.9 °F 96% 30.18 in 10.0 mi Calm Calm - N/A   Clear
2:53 AM 50.0 °F 48.9 °F 96% 30.16 in 10.0 mi Calm Calm - N/A   Clear
3:53 AM 48.9 °F 46.9 °F 93% 30.17 in 10.0 mi Calm Calm - N/A   Clear
4:53 AM 50.0 °F 48.0 °F 93% 30.16 in 10.0 mi Calm Calm - N/A   Clear
5:53 AM 48.9 °F 48.0 °F 97% 30.17 in 10.0 mi Calm Calm - N/A   Clear
6:53 AM 48.0 °F 46.9 °F 96% 30.19 in 10.0 mi SW 3.5 mph - N/A   Clear
7:53 AM 55.9 °F 54.0 °F 93% 30.18 in 10.0 mi SSE 4.6 mph - N/A   Clear
8:53 AM 60.1 °F 57.0 °F 90% 30.18 in 10.0 mi South 6.9 mph - N/A   Clear
9:53 AM 63.0 °F 55.9 °F 78% 30.17 in 10.0 mi South 11.5 mph - N/A   Clear
10:53 AM 64.9 °F 57.0 °F 75% 30.16 in 10.0 mi South 11.5 mph - N/A   Clear
11:53 AM 66.9 °F 57.9 °F 73% 30.16 in 10.0 mi SSE 10.4 mph - N/A   Mostly Cloudy
12:53 PM 68.0 °F 57.9 °F 70% 30.14 in 10.0 mi South 9.2 mph - N/A   Overcast
1:53 PM 69.1 °F 57.9 °F 68% 30.12 in 10.0 mi SSE 9.2 mph - N/A   Mostly Cloudy
2:53 PM 71.1 °F 60.1 °F 68% 30.08 in 10.0 mi South 11.5 mph - N/A   Mostly Cloudy
3:53 PM 72.0 °F 60.1 °F 66% 30.05 in 10.0 mi South 13.8 mph - N/A   Clear
4:53 PM 73.0 °F 60.1 °F 64% 30.01 in 10.0 mi South 13.8 mph - N/A   Clear
5:53 PM 73.0 °F 60.1 °F 64% 30.00 in 10.0 mi South 13.8 mph 23.0 mph N/A   Clear
6:53 PM 70.0 °F 62.1 °F 76% 29.99 in 10.0 mi SSE 9.2 mph - N/A   Clear
7:53 PM 64.9 °F 61.0 °F 87% 30.00 in 10.0 mi Calm Calm - N/A   Clear
8:53 PM 66.9 °F 62.1 °F 84% 29.99 in 10.0 mi South 5.8 mph - N/A   Overcast
9:53 PM 66.9 °F 62.1 °F 84% 29.99 in 10.0 mi South 8.1 mph - N/A   Overcast
10:53 PM 68.0 °F 62.1 °F 81% 29.96 in 10.0 mi South 12.7 mph - N/A   Overcast
11:53 PM 68.0 °F 63.0 °F 84% 29.94 in 10.0 mi South 10.4 mph - N/A   Overcast